N3WAX-1 Weather Reports


Display with metric or nautical units.
time (UTC)temp
F
wind
direction
speed
MPH
gust
MPH
rain 1hr
in
rain 24hr
in
rain mn
in
humidity
%
barometer
mb
20220123063414 19 250 1.0 3.0 0.00 0.00 0.00 71 1017.6
20220123062915 20 247 2.0 4.0 0.00 0.00 0.00 71 1017.8
20220123062409 19 240 2.0 4.0 0.00 0.00 0.00 71 1017.8
20220123061906 19 229 2.0 4.0 0.00 0.00 0.00 71 1017.9
20220123061407 19 236 2.0 3.0 0.00 0.00 0.00 71 1017.9
20220123060906 20 251 2.0 3.0 0.00 0.00 0.00 70 1018.1
20220123060405 20 259 1.0 2.0 0.00 0.00 0.00 71 1018.2
20220123055858 20 253 1.0 3.0 0.00 0.00 0.00 71 1018.2
20220123055356 20 236 1.0 3.0 0.00 0.00 0.00 70 1018.3
20220123054848 20 254 0.0 2.0 0.00 0.00 0.00 69 1018.5
20220123054347 20 265 1.0 3.0 0.00 0.00 0.00 69 1018.5
20220123053846 21 265 1.0 3.0 0.00 0.00 0.00 69 1018.5
20220123053324 21 251 1.0 4.0 0.00 0.00 0.00 69 1018.6
20220123052824 21 242 2.0 4.0 0.00 0.00 0.00 68 1018.7
20220123052324 21 242 1.0 3.0 0.00 0.00 0.00 68 1018.7
20220123051821 21 254 1.0 3.0 0.00 0.00 0.00 68 1018.9
20220123051323 20 235 1.0 3.0 0.00 0.00 0.00 67 1018.9
20220123050823 20 244 0.0 3.0 0.00 0.00 0.00 67 1018.9
20220123050325 20 240 1.0 3.0 0.00 0.00 0.00 67 1018.9
20220123045817 20 242 1.0 3.0 0.00 0.00 0.00 67 1018.9
20220123045315 20 234 2.0 5.0 0.00 0.00 0.00 66 1018.9
20220123044814 20 246 2.0 5.0 0.00 0.00 0.00 66 1018.9
20220123044306 20 220 2.0 5.0 0.00 0.00 0.00 66 1018.9
20220123043756 20 217 2.0 3.0 0.00 0.00 0.00 66 1019.0
20220123043258 19 216 2.0 3.0 0.00 0.00 0.00 65 1019.1
20220123042757 19 231 1.0 4.0 0.00 0.00 0.00 64 1019.2
20220123042254 20 225 1.0 4.0 0.00 0.00 0.00 63 1019.2
20220123041754 20 223 1.0 4.0 0.00 0.00 0.00 62 1019.2
20220123041247 20 211 1.0 4.0 0.00 0.00 0.00 62 1019.2
20220123040742 20 228 2.0 4.0 0.00 0.00 0.00 61 1019.3
20220123040242 20 224 2.0 4.0 0.00 0.00 0.00 61 1019.4
20220123035737 20 211 2.0 4.0 0.00 0.00 0.00 60 1019.5
20220123035237 21 221 2.0 6.0 0.00 0.00 0.00 60 1019.5
20220123034740 20 221 2.0 7.0 0.00 0.00 0.00 60 1019.5
20220123034237 20 204 2.0 7.0 0.00 0.00 0.00 62 1019.5
20220123033735 20 225 2.0 5.0 0.00 0.00 0.00 64 1019.5
20220123033233 22 261 3.0 6.0 0.00 0.00 0.00 60 1019.7
20220123032734 22 236 3.0 6.0 0.00 0.00 0.00 58 1019.7
20220123032231 22 205 3.0 7.0 0.00 0.00 0.00 57 1019.6
20220123031731 22 253 3.0 8.0 0.00 0.00 0.00 57 1019.6
20220123031232 22 229 3.0 8.0 0.00 0.00 0.00 57 1019.5
20220123030730 21 202 2.0 6.0 0.00 0.00 0.00 56 1019.5
20220123030230 21 205 2.0 5.0 0.00 0.00 0.00 56 1019.6
20220123025731 21 200 3.0 6.0 0.00 0.00 0.00 56 1019.7
20220123025229 22 198 3.0 6.0 0.00 0.00 0.00 57 1019.8
20220123024727 21 199 2.0 7.0 0.00 0.00 0.00 58 1019.9
20220123024227 21 211 2.0 7.0 0.00 0.00 0.00 61 1020.0
20220123023726 21 194 2.0 6.0 0.00 0.00 0.00 63 1020.1
20220123023226 21 217 2.0 5.0 0.00 0.00 0.00 67 1020.1
20220123022730 21 227 1.0 4.0 0.00 0.00 0.00 69 1020.4
20220123022221 20 202 1.0 3.0 0.00 0.00 0.00 71 1020.4
20220123021721 19 201 1.0 2.0 0.00 0.00 0.00 75 1020.4
20220123021210 19 201 0.0 2.0 0.00 0.00 0.00 73 1020.5
20220123020712 19 176 0.0 0.0 0.00 0.00 0.00 73 1020.6
20220123020155 19 175 0.0 0.0 0.00 0.00 0.00 71 1020.6
20220123015655 19 175 0.0 0.0 0.00 0.00 0.00 71 1020.7
20220123015150 20 176 0.0 0.0 0.00 0.00 0.00 69 1020.6
20220123014648 20 175 0.0 0.0 0.00 0.00 0.00 67 1020.7
20220123014153 20 175 0.0 0.0 0.00 0.00 0.00 69 1020.8
20220123013644 20 175 0.0 0.0 0.00 0.00 0.00 68 1020.9
20220123013142 20 176 0.0 0.0 0.00 0.00 0.00 68 1020.9
20220123012644 20 176 0.0 0.0 0.00 0.00 0.00 69 1020.9
20220123012143 20 175 0.0 2.0 0.00 0.00 0.00 70 1020.9
20220123011641 21 176 1.0 3.0 0.00 0.00 0.00 69 1021.0
20220123011143 22 175 2.0 3.0 0.00 0.00 0.00 61 1021.2
20220123010640 21 176 2.0 3.0 0.00 0.00 0.00 63 1021.2
20220123010141 21 180 1.0 3.0 0.00 0.00 0.00 64 1021.2
20220123005640 20 241 0.0 2.0 0.00 0.00 0.00 57 1021.3
20220123005139 20 282 0.0 0.0 0.00 0.00 0.00 59 1021.3
20220123004641 19 319 0.0 0.0 0.00 0.00 0.00 61 1021.4
20220123004135 20 320 0.0 0.0 0.00 0.00 0.00 59 1021.6
20220123003635 20 320 0.0 0.0 0.00 0.00 0.00 58 1021.6
20220123003123 20 320 0.0 0.0 0.00 0.00 0.00 58 1021.7
20220123002618 19 320 0.0 0.0 0.00 0.00 0.00 59 1021.6
20220123002119 19 320 0.0 0.0 0.00 0.00 0.00 61 1021.7
20220123001615 19 320 0.0 0.0 0.00 0.00 0.00 60 1021.8
20220123001116 20 320 0.0 0.0 0.00 0.00 0.00 59 1022.1
20220123000551 20 320 0.0 0.0 0.00 0.00 0.00 58 1022.1
20220123000029 20 320 0.0 0.0 0.00 0.00 0.00 59 1022.2
20220122235527 20 320 0.0 0.0 0.00 0.00 0.00 59 1022.1
20220122235027 20 320 0.0 0.0 0.00 0.00 0.00 57 1021.8
20220122234520 20 320 0.0 0.0 0.00 0.00 0.00 58 1021.9
20220122234016 20 320 0.0 0.0 0.00 0.00 0.00 59 1021.9
20220122233505 20 320 0.0 0.0 0.00 0.00 0.00 59 1022.1
20220122232957 20 320 0.0 0.0 0.00 0.00 0.00 58 1021.9
20220122232456 20 320 0.0 0.0 0.00 0.00 0.00 58 1022.1
20220122231955 20 320 0.0 0.0 0.00 0.00 0.00 56 1022.1
20220122231448 20 320 0.0 0.0 0.00 0.00 0.00 56 1022.2
20220122230938 21 320 0.0 0.0 0.00 0.00 0.00 56 1022.2
20220122230421 21 320 0.0 0.0 0.00 0.00 0.00 56 1022.2
20220122225924 22 320 0.0 0.0 0.00 0.00 0.00 53 1022.1
20220122225420 21 320 0.0 1.0 0.00 0.00 0.00 54 1022.1
20220122224920 22 320 0.0 1.0 0.00 0.00 0.00 53 1021.9
20220122224421 23 320 1.0 2.0 0.00 0.00 0.00 51 1021.9
20220122223912 23 320 0.0 2.0 0.00 0.00 0.00 50 1021.8
20220122223410 23 319 0.0 1.0 0.00 0.00 0.00 50 1021.9
20220122222913 23 319 0.0 1.0 0.00 0.00 0.00 50 1022.2
20220122222409 23 319 0.0 1.0 0.00 0.00 0.00 48 1022.3
20220122221912 23 319 0.0 1.0 0.00 0.00 0.00 50 1022.3
20220122221406 24 319 0.0 2.0 0.00 0.00 0.00 49 1022.3
20220122220853 24 319 1.0 3.0 0.00 0.00 0.00 48 1022.5
20220122220349 24 324 1.0 4.0 0.00 0.00 0.00 48 1022.7
20220122215851 24 323 3.0 5.0 0.00 0.00 0.00 48 1022.8
20220122215348 24 312 3.0 5.0 0.00 0.00 0.00 48 1023.1
20220122214848 25 315 2.0 5.0 0.00 0.00 0.00 47 1023.0
20220122214350 25 307 3.0 5.0 0.00 0.00 0.00 47 1023.0
20220122213850 25 309 3.0 5.0 0.00 0.00 0.00 46 1023.0
20220122213347 26 5 3.0 5.0 0.00 0.00 0.00 44 1023.0
20220122212843 26 304 3.0 5.0 0.00 0.00 0.00 43 1023.1
20220122212343 26 319 3.0 5.0 0.00 0.00 0.00 44 1023.1
20220122211842 26 313 2.0 4.0 0.00 0.00 0.00 44 1023.2
20220122211343 26 355 2.0 4.0 0.00 0.00 0.00 46 1023.1
20220122210847 26 321 3.0 7.0 0.00 0.00 0.00 46 1023.3
20220122210339 26 322 3.0 7.0 0.00 0.00 0.00 46 1023.3
20220122205839 26 286 3.0 6.0 0.00 0.00 0.00 44 1023.4
20220122205340 26 305 4.0 8.0 0.00 0.00 0.00 46 1023.6
20220122204838 26 301 5.0 8.0 0.00 0.00 0.00 43 1023.4
20220122204339 27 290 4.0 8.0 0.00 0.00 0.00 46 1023.6
20220122203837 27 341 4.0 8.0 0.00 0.00 0.00 44 1023.6
20220122203336 27 315 3.0 6.0 0.00 0.00 0.00 45 1023.7
20220122202836 27 304 4.0 7.0 0.00 0.00 0.00 46 1023.8
20220122202333 27 259 4.0 9.0 0.00 0.00 0.00 42 1024.0
20220122201832 27 327 4.0 9.0 0.00 0.00 0.00 46 1024.2
20220122201333 27 292 3.0 8.0 0.00 0.00 0.00 44 1024.2
20220122200831 27 292 3.0 8.0 0.00 0.00 0.00 44 1024.3
20220122200332 26 267 3.0 8.0 0.00 0.00 0.00 41 1024.2
20220122195830 27 281 4.0 7.0 0.00 0.00 0.00 44 1024.3
20220122195330 26 250 4.0 8.0 0.00 0.00 0.00 42 1024.3
20220122194829 26 260 4.0 8.0 0.00 0.00 0.00 44 1024.4
20220122194330 28 292 3.0 8.0 0.00 0.00 0.00 45 1024.7
20220122193829 27 306 3.0 5.0 0.00 0.00 0.00 48 1024.6
20220122193332 27 325 4.0 11.0 0.00 0.00 0.00 46 1024.5
20220122192827 28 306 5.0 11.0 0.00 0.00 0.00 46 1024.7
20220122192326 28 306 4.0 9.0 0.00 0.00 0.00 46 1024.9
20220122191825 28 313 4.0 9.0 0.00 0.00 0.00 48 1024.9
20220122191323 28 355 4.0 9.0 0.00 0.00 0.00 46 1025.0
20220122190826 28 328 3.0 9.0 0.00 0.00 0.00 46 1025.1
20220122190326 27 340 3.0 8.0 0.00 0.00 0.00 45 1025.0
20220122185831 27 273 4.0 8.0 0.00 0.00 0.00 42 1025.0
20220122185328 26 294 3.0 6.0 0.00 0.00 0.00 42 1025.0
20220122184822 27 298 4.0 9.0 0.00 0.00 0.00 41 1025.1
20220122184323 26 256 4.0 11.0 0.00 0.00 0.00 45 1025.3
20220122183824 27 294 4.0 11.0 0.00 0.00 0.00 45 1025.6
20220122183322 27 11 4.0 7.0 0.00 0.00 0.00 47 1025.7
20220122182823 26 348 4.0 10.0 0.00 0.00 0.00 42 1025.7
20220122182323 26 271 4.0 10.0 0.00 0.00 0.00 42 1025.8
20220122181823 26 319 4.0 9.0 0.00 0.00 0.00 47 1025.8
20220122181323 25 339 4.0 9.0 0.00 0.00 0.00 46 1025.8
20220122180822 26 267 5.0 9.0 0.00 0.00 0.00 46 1025.9
20220122180321 26 272 4.0 9.0 0.00 0.00 0.00 45 1026.0
20220122175828 26 298 2.0 7.0 0.00 0.00 0.00 46 1026.3
20220122175322 26 346 1.0 5.0 0.00 0.00 0.00 46 1026.4
20220122174814 25 319 1.0 5.0 0.00 0.00 0.00 47 1026.3
20220122174312 24 88 2.0 4.0 0.00 0.00 0.00 44 1026.4
20220122173814 24 118 1.0 4.0 0.00 0.00 0.00 43 1026.3
20220122173311 24 250 1.0 3.0 0.00 0.00 0.00 45 1026.7
20220122172811 24 19 2.0 4.0 0.00 0.00 0.00 41 1026.8
20220122172311 24 29 2.0 4.0 0.00 0.00 0.00 46 1026.9
20220122171808 24 16 2.0 4.0 0.00 0.00 0.00 50 1027.0
20220122171308 24 283 3.0 5.0 0.00 0.00 0.00 48 1027.1
20220122170806 24 304 2.0 5.0 0.00 0.00 0.00 50 1027.4
20220122170307 23 344 2.0 6.0 0.00 0.00 0.00 54 1027.6
20220122165808 22 111 2.0 6.0 0.00 0.00 0.00 50 1027.5
20220122165255 22 95 3.0 7.0 0.00 0.00 0.00 50 1027.5
20220122164754 23 85 4.0 7.0 0.00 0.00 0.00 51 1027.7
20220122164255 22 0 3.0 6.0 0.00 0.00 0.00 52 1027.8
20220122163752 22 46 3.0 7.0 0.00 0.00 0.00 53 1027.8
20220122163252 21 97 4.0 9.0 0.00 0.00 0.00 52 1027.9
20220122162750 22 82 5.0 9.0 0.00 0.00 0.00 53 1028.0
20220122162250 22 69 4.0 9.0 0.00 0.00 0.00 54 1028.0
20220122161748 21 101 4.0 7.0 0.00 0.00 0.00 52 1028.2
20220122161252 21 91 3.0 7.0 0.00 0.00 0.00 51 1028.4
20220122160754 22 55 3.0 7.0 0.00 0.00 0.00 56 1028.7
20220122160250 21 350 3.0 8.0 0.00 0.00 0.00 53 1029.2
20220122155752 21 5 4.0 8.0 0.00 0.00 0.00 54 1029.3
20220122155248 21 17 3.0 8.0 0.00 0.00 0.00 53 1029.6
20220122154748 21 17 2.0 8.0 0.00 0.00 0.00 58 1029.4
20220122154248 20 5 2.0 8.0 0.00 0.00 0.00 55 1029.4
20220122153753 20 49 4.0 6.0 0.00 0.00 0.00 55 1029.6
20220122153246 19 69 4.0 9.0 0.00 0.00 0.00 53 1029.5
20220122152744 20 351 3.0 9.0 0.00 0.00 0.00 55 1029.7
20220122152245 20 63 4.0 6.0 0.00 0.00 0.00 57 1029.6
20220122151747 19 26 4.0 10.0 0.00 0.00 0.00 55 1029.4
20220122151241 18 74 5.0 10.0 0.00 0.00 0.00 52 1029.2
20220122150739 18 57 5.0 10.0 0.00 0.00 0.00 52 1029.1
20220122150241 18 5 5.0 11.0 0.00 0.00 0.00 56 1029.3
20220122145740 17 14 5.0 11.0 0.00 0.00 0.00 55 1029.6
20220122145238 17 17 5.0 11.0 0.00 0.00 0.00 57 1029.6
20220122144736 17 34 6.0 10.0 0.00 0.00 0.00 56 1029.4
20220122144237 16 25 6.0 11.0 0.00 0.00 0.00 55 1029.3
20220122143734 16 33 7.0 11.0 0.00 0.00 0.00 58 1029.2
20220122143508 15 49 7.0 12.0 0.00 0.00 0.00 56 1029.6
20220122142734 15 44 6.0 12.0 0.00 0.00 0.00 57 1029.7
20220122142233 15 5 6.0 11.0 0.00 0.00 0.00 59 1029.7
20220122141732 14 52 6.0 11.0 0.00 0.00 0.00 57 1029.7
20220122141232 14 56 6.0 10.0 0.00 0.00 0.00 57 1029.6
20220122140733 14 5 5.0 10.0 0.00 0.00 0.00 57 1029.5
20220122140230 14 59 5.0 11.0 0.00 0.00 0.00 59 1029.6
20220122135731 13 40 6.0 11.0 0.00 0.00 0.00 58 1029.5
20220122135232 13 63 6.0 11.0 0.00 0.00 0.00 58 1029.8
20220122134728 13 29 6.0 11.0 0.00 0.00 0.00 59 1029.6
20220122134228 13 5 5.0 9.0 0.00 0.00 0.00 60 1030.0
20220122133730 13 5 4.0 10.0 0.00 0.00 0.00 59 1030.0
20220122133234 13 18 4.0 10.0 0.00 0.00 0.00 60 1029.8
20220122132727 12 31 5.0 10.0 0.00 0.00 0.00 60 1029.7
20220122132230 11 34 6.0 10.0 0.00 0.00 0.00 61 1029.5
20220122131725 11 40 5.0 10.0 0.00 0.00 0.00 61 1029.4
20220122131223 11 26 5.0 9.0 0.00 0.00 0.00 62 1029.3
20220122130723 11 64 4.0 9.0 0.00 0.00 0.00 63 1029.2
20220122130221 11 11 4.0 10.0 0.00 0.00 0.00 64 1029.0
20220122125721 10 58 4.0 10.0 0.00 0.00 0.00 64 1029.0
20220122125220 10 60 4.0 9.0 0.00 0.00 0.00 65 1028.9
20220122124722 10 58 5.0 9.0 0.00 0.00 0.00 64 1028.7
20220122124218 10 68 4.0 9.0 0.00 0.00 0.00 64 1028.7
20220122123718 9 42 4.0 9.0 0.00 0.00 0.00 65 1028.6
20220122123217 9 44 4.0 8.0 0.00 0.00 0.00 65 1028.7
20220122122718 9 40 4.0 6.0 0.00 0.00 0.00 64 1028.9
20220122122217 9 54 3.0 7.0 0.00 0.00 0.00 64 1028.9
20220122121716 9 62 3.0 7.0 0.00 0.00 0.00 65 1028.9
20220122121217 10 49 3.0 7.0 0.00 0.00 0.00 65 1028.8
20220122120715 10 45 4.0 7.0 0.00 0.00 0.00 64 1028.8
20220122120214 10 26 4.0 7.0 0.00 0.00 0.00 64 1028.8
20220122115713 10 16 3.0 7.0 0.00 0.00 0.00 64 1029.0
20220122115212 10 15 3.0 7.0 0.00 0.00 0.00 64 1029.2
20220122114713 10 23 4.0 7.0 0.00 0.00 0.00 64 1029.2
20220122114211 10 5 4.0 8.0 0.00 0.00 0.00 64 1029.2
20220122113709 10 30 4.0 8.0 0.00 0.00 0.00 63 1029.0
20220122113211 10 36 4.0 8.0 0.00 0.00 0.00 63 1029.1
20220122112710 11 13 4.0 10.0 0.00 0.00 0.00 63 1028.8
20220122112210 11 30 5.0 10.0 0.00 0.00 0.00 62 1028.8
20220122111709 11 33 6.0 11.0 0.00 0.00 0.00 63 1028.7
20220122111209 11 9 6.0 11.0 0.00 0.00 0.00 63 1028.7
20220122110706 11 0 5.0 11.0 0.00 0.00 0.00 63 1028.7
20220122110206 11 14 4.0 10.0 0.00 0.00 0.00 63 1028.7
20220122105705 11 30 4.0 9.0 0.00 0.00 0.00 63 1028.7
20220122105205 11 35 4.0 9.0 0.00 0.00 0.00 63 1028.5
20220122104705 11 27 5.0 10.0 0.00 0.00 0.00 62 1028.5
20220122104204 11 34 5.0 10.0 0.00 0.00 0.00 62 1028.4
20220122103703 11 17 5.0 10.0 0.00 0.00 0.00 62 1028.4
20220122103202 11 36 6.0 10.0 0.00 0.00 0.00 61 1028.1
20220122102701 11 40 5.0 9.0 0.00 0.00 0.00 61 1028.1
20220122102202 11 40 5.0 10.0 0.00 0.00 0.00 61 1028.0
20220122101700 11 38 6.0 10.0 0.00 0.00 0.00 62 1028.1
20220122101159 12 46 6.0 12.0 0.00 0.00 0.00 61 1028.0
20220122100658 12 59 6.0 12.0 0.00 0.00 0.00 61 1028.1
20220122100159 12 19 6.0 11.0 0.00 0.00 0.00 61 1028.1
20220122095657 12 37 6.0 11.0 0.00 0.00 0.00 61 1028.1
20220122095158 12 59 5.0 9.0 0.00 0.00 0.00 62 1028.1
20220122094659 12 41 5.0 11.0 0.00 0.00 0.00 62 1028.2
20220122094156 12 43 6.0 11.0 0.00 0.00 0.00 61 1028.2
20220122093657 12 57 6.0 11.0 0.00 0.00 0.00 61 1028.2
20220122093153 12 41 6.0 12.0 0.00 0.00 0.00 62 1028.1
20220122092654 12 53 5.0 12.0 0.00 0.00 0.00 62 1028.2
20220122092153 12 11 5.0 9.0 0.00 0.00 0.00 62 1028.1
20220122091652 12 24 5.0 10.0 0.00 0.00 0.00 63 1028.1
20220122091150 12 42 5.0 10.0 0.00 0.00 0.00 63 1028.1
20220122090649 12 43 4.0 10.0 0.00 0.00 0.00 63 1028.2
20220122090149 12 45 4.0 9.0 0.00 0.00 0.00 63 1028.1
20220122085656 12 36 4.0 9.0 0.00 0.00 0.00 63 1028.1
20220122085151 12 45 4.0 9.0 0.00 0.00 0.00 64 1028.1
20220122084650 13 47 5.0 10.0 0.00 0.00 0.00 63 1028.4
20220122084149 13 17 6.0 10.0 0.00 0.00 0.00 63 1028.5
20220122083649 13 46 5.0 10.0 0.00 0.00 0.00 63 1028.5
20220122083150 13 23 4.0 9.0 0.00 0.00 0.00 63 1028.5
20220122082651 13 23 5.0 10.0 0.00 0.00 0.00 63 1028.5
20220122082147 13 68 6.0 11.0 0.00 0.00 0.00 62 1028.6
20220122081644 13 28 6.0 11.0 0.00 0.00 0.00 62 1028.7
20220122081144 13 28 6.0 11.0 0.00 0.00 0.00 62 1028.8
20220122080644 13 5 6.0 10.0 0.00 0.00 0.00 63 1028.9
20220122080144 13 39 6.0 10.0 0.00 0.00 0.00 62 1029.0
20220122075648 13 29 5.0 10.0 0.00 0.00 0.00 62 1029.1
20220122075139 13 22 5.0 9.0 0.00 0.00 0.00 62 1029.1
20220122074639 14 35 5.0 11.0 0.00 0.00 0.00 61 1029.1
20220122074139 14 46 6.0 13.0 0.00 0.00 0.00 60 1029.1
20220122073638 14 46 7.0 14.0 0.00 0.00 0.00 59 1029.3
20220122073137 14 44 6.0 14.0 0.00 0.00 0.00 60 1029.3
20220122072636 14 44 6.0 13.0 0.00 0.00 0.00 61 1029.5
20220122072136 14 45 6.0 13.0 0.00 0.00 0.00 61 1029.6
20220122071635 14 36 6.0 12.0 0.00 0.00 0.00 62 1029.7
20220122071135 15 49 6.0 12.0 0.00 0.00 0.00 62 1029.7
20220122070635 15 25 6.0 11.0 0.00 0.00 0.00 62 1029.5
20220122070133 15 30 5.0 11.0 0.00 0.00 0.00 62 1029.7
20220122065633 15 46 5.0 11.0 0.00 0.00 0.00 62 1029.7
20220122065132 15 55 5.0 10.0 0.00 0.00 0.00 62 1029.6
20220122064632 15 49 5.0 10.0 0.00 0.00 0.00 61 1029.6
20220122064131 15 39 6.0 10.0 0.00 0.00 0.00 61 1029.6